Home   Weather   Aspen   Past weeks
Flag for USA

Past Weather in Aspen, Colorado, USA — Yesterday and Last 2 Weeks

Now
35 °F

Overcast.


Feels Like: 35 °F
Forecast: 40 / 27 °F
Wind: No wind

Location: Aspen-Pitkin County Airport

Current Time: Mar 23, 2019 at 10:00:42 pm

Latest Report: Mar 23, 2019 at 8:53 pm


Visibility: 10 mi

Pressure: 30.02 "Hg (22.25 "Hg at 2411m altitude)

Humidity: 67%

Dew Point: 25 °F

Location of AspenLocation

Past Weather in Aspen — Graph

°F

Aspen Temperature Yesterday

Maximum temperature yesterday: 36 °F (at 12:53 pm)
Minimum temperature yesterday: 29 °F (at 6:53 am)
Average temperature yesterday: 32 °F

High & Low Weather Summary for the Past Weeks

 TemperatureHumidityPressure
High49 °F (Mar 21, 2:24 pm)96% (Mar 13, 3:24 am)30.52 "Hg (Mar 13, 3:24 am)
Low2 °F (Mar 15, 7:53 am)17% (Mar 20, 4:53 pm)29.05 "Hg (Mar 13, 5:53 am)
Average29 °F68%29.97 "Hg
* Reported Mar 8 6:53 pm — Mar 23 7:53 pm, Aspen. Weather by CustomWeather, © 2019

Note: Actual official high and low records may vary slightly from our data, if they occured in-between our weather recording intervals... More about our weather records

Advertising

Aspen Weather History for the Previous 24 Hours

Scroll right to see more
 ConditionsComfort  
Time TempWeatherWind HumidityBarometerVisibility
7:53 pm
Sat, Mar 23
36 °FMostly cloudy.3 mph64%30.01 "Hg10 mi
6:53 pm38 °FOvercast.No wind55%29.99 "Hg10 mi
5:53 pm39 °FPartly sunny.3 mph53%29.97 "Hg10 mi
4:53 pm41 °FPartly sunny.12 mph45%29.94 "Hg10 mi
3:53 pm40 °FPartly sunny.9 mph53%29.96 "Hg10 mi
2:53 pm40 °FPartly sunny.10 mph51%29.94 "Hg10 mi
1:53 pm40 °FPartly sunny.12 mph55%29.96 "Hg10 mi
12:53 pm39 °FPartly sunny.14 mph57%29.97 "Hg10 mi
12:36 pm37 °FPartly sunny.14 mph65%30.08 "Hg10 mi
11:53 am38 °FPartly sunny.9 mph65%29.99 "Hg7 mi
10:53 am35 °FLight snow. Partly sunny.5 mph70%30.01 "Hg6 mi
10:19 am32 °FLight snow. Mostly cloudy.No wind75%30.09 "Hg6 mi
9:53 am30 °FLight snow. Overcast.No wind82%30.03 "Hg7 mi
8:53 am30 °FOvercast.No wind82%30.03 "Hg10 mi
7:53 am28 °FMostly cloudy.3 mph81%30.02 "Hg10 mi
6:53 am27 °FMostly cloudy.No wind89%30.00 "Hg10 mi
5:53 am27 °FOvercast.3 mph81%30.01 "Hg10 mi
4:53 am28 °FMostly cloudy.No wind85%29.99 "Hg10 mi
3:53 am28 °FOvercast.No wind81%29.96 "Hg10 mi
2:53 am29 °FOvercast.No wind82%29.99 "Hg10 mi
1:53 am29 °FOvercast.5 mph82%29.99 "Hg10 mi
12:53 am30 °FLight snow. Mostly cloudy.No wind82%29.98 "Hg9 mi
11:53 pm
Fri, Mar 22
30 °FOvercast.5 mph82%29.99 "Hg10 mi
10:53 pm30 °FOvercast.No wind79%29.98 "Hg10 mi
Weather by CustomWeather, © 2019

See weather overview